Weather History for Toledo, OH

Change the Weather History Date:

Tuesday, December 11, 2012

  Actual Average Record
Temperature  
Mean Temperature 32 °F 31 °F  
Max Temperature 35 °F 37 °F 64 °F (1931)
Min Temperature 28 °F 24 °F -12 °F (1977)
Degree Days  
Heating Degree Days 33 34  
Month to date heating degree days 255 355  
Since 1 July heating degree days 1592 1588  
Cooling Degree Days 0 0  
Month to date cooling degree days 0 0  
Year to date cooling degree days 998 793  
Moisture  
Dew Point 23 °F    
Average Humidity 66    
Maximum Humidity 78    
Minimum Humidity 54    
Precipitation  
Precipitation 0.01 in 0.08 in 1.06 in (2000)
Month to date precipitation 0.58 0.99  
Year to date precipitation 28.77 32.55  
Snow  
Snow T in 0.30 in - ()
Month to date snowfall T 2.1  
Since 1 July snowfall T 4.2  
Snow Depth 0.00 in    
Sea Level Pressure  
Sea Level Pressure 30.05 in    
Wind  
Wind Speed 9 mph (WSW)    
Max Wind Speed 18 mph    
Max Gust Speed 24 mph    
Visibility 9 miles    
Events Snow    
T = Trace of Precipitation, MM = Missing Value Source: NWS Daily Summary

Daily Weather History Graph

Daily Weather History Graph

Search for Another Location

Airport:

Trip Planner

Search our weather history database for the weather conditions in past years. The results will help you decide how hot, cold, wet, or windy it might be!

Date:

Astronomy

Dec. 11, 2012 Rise Set
Actual Time 7:52 AM EST 5:05 PM EST
Civil Twilight 7:20 AM EST 5:36 PM EST
Nautical Twilight 6:45 AM EST 6:11 PM EST
Astronomical Twilight 6:12 AM EST 6:45 PM EST
Moon 5:45 AM EST (12/11) 3:44 PM EST (12/11)
Length of Visible Light 10h 15m
Length of Day
9h 12m
Waning Crescent, 4% of the Moon is Illuminated
Dec 11
Waning Crescent
Dec 13
New
Dec 20
First Quarter
Dec 28
Full
Jan 4
Last Quarter

Hourly Weather History & Observations

Time (EST) Temp. Windchill Dew Point Humidity Pressure Visibility Wind Dir Wind Speed Gust Speed Precip Events Conditions
12:52 AM 33.1 °F 30.0 °F 25.0 °F 72% 29.89 in 10.0 mi WNW 3.5 mph - N/A   Overcast
1:52 AM 32.0 °F 25.6 °F 24.1 °F 73% 29.91 in 10.0 mi WNW 6.9 mph - N/A   Overcast
2:52 AM 30.9 °F 25.2 °F 21.9 °F 69% 29.92 in 10.0 mi NW 5.8 mph - N/A   Overcast
3:52 AM 30.9 °F 27.5 °F 23.0 °F 72% 29.94 in 10.0 mi West 3.5 mph - N/A   Overcast
4:52 AM 30.9 °F 27.5 °F 23.0 °F 72% 29.96 in 10.0 mi West 3.5 mph - N/A   Overcast
5:52 AM 30.0 °F 22.4 °F 24.1 °F 79% 29.97 in 10.0 mi WSW 8.1 mph - N/A   Overcast
6:52 AM 28.9 °F 25.2 °F 23.0 °F 78% 29.99 in 10.0 mi SW 3.5 mph - N/A   Overcast
7:52 AM 30.0 °F 25.2 °F 24.1 °F 79% 30.01 in 10.0 mi WSW 4.6 mph - N/A   Overcast
8:47 AM 30.2 °F 23.4 °F 24.8 °F 80% 30.01 in 1.5 mi WSW 6.9 mph - 0.00 in Snow Light Snow
8:49 AM 30.2 °F 23.4 °F 24.8 °F 80% 30.01 in 0.8 mi WSW 6.9 mph - 0.00 in Snow Light Snow
8:52 AM 30.0 °F 23.2 °F 26.1 °F 85% 30.04 in 0.8 mi West 6.9 mph - 0.01 in Snow Light Snow
8:59 AM 30.2 °F 23.4 °F 26.6 °F 86% 30.02 in 1.5 mi WSW 6.9 mph - 0.00 in Snow Light Snow
9:01 AM 30.2 °F 23.4 °F 26.6 °F 86% 30.02 in 3.0 mi WSW 6.9 mph - 0.00 in Snow Light Snow
9:16 AM 30.2 °F 25.4 °F 26.6 °F 86% 30.02 in 10.0 mi SW 4.6 mph - 0.00 in   Overcast
9:52 AM 32.0 °F 24.2 °F 27.0 °F 82% 30.06 in 10.0 mi WSW 9.2 mph - 0.00 in   Overcast
10:25 AM 33.8 °F 23.9 °F 26.6 °F 75% 30.05 in 10.0 mi WSW 15.0 mph - N/A   Overcast
10:43 AM 33.8 °F 25.3 °F 26.6 °F 75% 30.05 in 10.0 mi West 11.5 mph - N/A   Mostly Cloudy
10:52 AM 35.1 °F 26.4 °F 26.1 °F 70% 30.07 in 10.0 mi WSW 12.7 mph - N/A   Mostly Cloudy
11:52 AM 33.1 °F 23.0 °F 23.0 °F 66% 30.08 in 10.0 mi WSW 15.0 mph - N/A   Scattered Clouds
12:52 PM 33.1 °F 23.4 °F 21.9 °F 64% 30.07 in 10.0 mi SW 13.8 mph - N/A   Overcast
1:52 PM 34.0 °F 24.2 °F 21.0 °F 59% 30.09 in 10.0 mi WSW 15.0 mph - N/A   Overcast
2:52 PM 33.1 °F 22.6 °F 19.0 °F 56% 30.09 in 10.0 mi SW 16.1 mph 21.9 mph N/A   Overcast
3:52 PM 32.0 °F 22.1 °F 18.0 °F 56% 30.10 in 10.0 mi SW 13.8 mph - N/A   Overcast
4:52 PM 32.0 °F 25.6 °F 19.0 °F 59% 30.12 in 10.0 mi SW 6.9 mph - N/A   Overcast
5:52 PM 30.9 °F 23.5 °F 19.9 °F 64% 30.13 in 10.0 mi SW 8.1 mph - N/A   Mostly Cloudy
6:52 PM 28.9 °F 21.9 °F 19.9 °F 69% 30.14 in 10.0 mi SSW 6.9 mph - N/A   Clear
7:52 PM 28.9 °F 21.1 °F 21.0 °F 72% 30.15 in 10.0 mi SSW 8.1 mph - N/A   Clear
8:52 PM 28.9 °F 20.4 °F 21.0 °F 72% 30.16 in 10.0 mi SSW 9.2 mph - N/A   Clear
9:52 PM 28.9 °F 20.4 °F 21.0 °F 72% 30.17 in 10.0 mi SSW 9.2 mph - N/A   Clear
10:52 PM 28.0 °F 20.8 °F 21.9 °F 78% 30.19 in 10.0 mi SSW 6.9 mph - N/A   Clear
11:52 PM 28.0 °F 19.3 °F 21.9 °F 78% 30.22 in 10.0 mi SW 9.2 mph - N/A   Clear